Vorticity
nan nan nan nan nan nan nan nan nan nan nan nan nan nan nan nan nan nan nan nan nan nan nan nan nan nan nan nan nan nan nan nan nan nan nan nan nan nan nan nan nan nan nan nan nan nan nan nan nan nan nan nan nan nan
nan 9 9 9 9 9 9 9 9 10 9 9 11 13 14 14 16 17 17 15 9 6 5 10 18 19 17 7 5 7 7 7 11 9 10 11 12 8 12 16 12 1 2 12 11 2 2 10 5 -4 1 5 6 nan
nan 9 9 9 10 10 10 10 10 10 9 10 12 13 13 14 17 20 16 11 10 11 14 16 16 20 20 16 8 3 8 9 5 8 10 11 8 9 14 10 6 13 10 8 8 5 2 2 3 4 4 4 4 nan
nan 9 9 9 10 9 11 10 11 11 10 10 13 13 13 15 21 22 16 9 8 11 10 13 9 8 14 22 17 11 2 3 9 14 12 10 13 11 6 8 10 12 9 10 11 14 16 11 5 5 5 9 6 nan
nan 9 10 10 11 10 11 11 11 10 11 12 13 13 15 20 26 19 13 12 8 8 8 6 14 15 16 22 19 13 12 6 8 10 12 10 7 12 12 12 10 9 8 7 9 9 7 12 15 11 4 9 12 nan
nan 10 11 11 11 11 12 12 11 12 13 13 14 16 22 31 19 10 11 13 11 7 10 9 16 20 14 13 18 15 12 13 10 10 10 12 10 10 16 13 8 11 12 4 3 9 9 10 9 9 11 11 15 nan
nan 11 12 11 12 14 14 13 12 13 13 14 18 29 35 23 8 9 11 18 14 7 10 10 11 12 15 12 12 17 15 12 10 10 11 11 16 12 9 9 12 11 9 8 13 15 11 10 9 15 13 8 15 nan
nan 12 12 13 14 13 10 12 13 12 13 18 28 29 16 7 9 9 17 15 8 8 10 11 12 9 11 13 13 14 12 11 11 9 12 12 12 11 8 6 14 26 31 23 15 9 8 9 7 9 18 16 18 nan
nan 12 12 14 13 11 12 12 12 15 18 31 23 3 1 4 11 19 15 4 5 10 11 11 11 9 11 14 13 11 10 11 12 9 10 10 11 7 2 17 23 31 47 35 19 13 15 12 7 11 16 15 15 nan
nan 10 12 12 12 12 12 13 16 17 28 23 7 5 9 17 15 7 4 7 11 10 11 10 10 10 11 12 11 13 10 9 12 15 12 10 4 -5 6 25 30 27 33 36 24 21 16 15 16 17 10 26 24 nan
nan 11 12 11 11 14 13 16 17 27 24 6 10 12 13 11 5 4 9 10 12 12 13 11 9 12 11 8 12 13 10 9 10 8 12 11 -0 1 12 16 18 18 18 26 34 24 17 23 29 29 20 16 15 nan
nan 12 10 12 14 15 16 18 24 21 11 13 13 15 11 7 8 10 12 13 8 11 12 9 13 13 11 11 9 9 11 12 7 11 12 6 1 7 10 6 12 14 16 17 21 16 13 19 23 21 20 14 18 nan
nan 11 11 13 15 13 16 22 24 21 11 10 7 8 10 11 11 11 9 9 7 10 7 10 14 17 16 11 7 7 13 14 9 13 8 1 8 9 13 12 7 9 11 13 9 11 13 8 10 14 12 9 9 nan
nan 10 13 18 12 12 20 25 21 8 6 10 11 11 12 10 11 7 9 12 12 7 7 15 14 15 14 12 12 12 11 10 12 11 8 2 5 12 15 14 11 11 10 10 11 11 10 10 9 10 12 13 12 nan
nan 12 25 12 6 15 18 26 17 4 12 12 11 8 11 15 10 10 15 14 13 15 15 16 13 9 15 13 10 12 12 12 9 9 4 5 8 13 13 12 12 13 13 10 9 12 11 11 11 11 13 12 11 nan
nan 27 13 0 11 14 23 20 10 15 14 10 9 10 10 12 12 14 14 14 16 21 16 10 13 9 11 12 9 13 12 8 8 7 7 9 9 13 13 12 12 11 11 11 12 10 10 11 13 12 12 11 12 nan
nan 16 -1 6 14 24 26 17 10 12 12 11 10 12 13 10 9 11 13 14 15 20 20 12 10 14 12 10 13 12 12 8 6 11 11 10 11 11 10 10 9 10 11 11 10 11 12 11 10 9 11 10 10 nan
nan -2 -1 8 24 26 16 12 12 11 11 9 8 9 12 11 11 13 13 15 18 13 14 15 8 12 16 10 10 11 14 16 13 11 12 10 9 9 10 10 10 9 9 10 12 9 9 12 12 9 7 12 12 nan
nan 4 6 15 20 17 13 12 11 13 10 12 7 6 9 10 12 12 13 14 16 17 14 10 11 10 11 10 10 11 12 13 16 14 10 7 8 10 12 10 9 9 10 9 12 14 9 9 12 14 13 11 9 nan
nan 19 15 18 16 14 12 10 13 11 10 10 11 7 9 7 10 11 11 12 15 15 17 13 10 11 9 11 13 11 12 12 15 14 10 8 9 9 8 10 10 10 10 12 12 13 14 11 11 12 11 12 11 nan
nan 11 19 18 12 13 13 13 10 11 13 10 11 11 12 10 8 9 9 12 11 13 12 10 12 9 10 11 10 12 11 11 14 11 11 11 12 10 8 9 11 12 13 13 13 13 14 13 12 11 11 12 13 nan
nan 12 16 13 12 13 9 9 11 14 9 13 11 11 10 12 12 9 11 11 10 10 9 10 9 10 10 9 9 13 11 12 14 14 13 9 9 11 10 11 11 12 12 12 13 13 13 10 13 11 12 12 8 nan
nan 15 12 13 12 12 12 12 12 9 11 12 13 12 11 11 13 12 12 11 11 9 12 12 11 9 10 10 9 9 9 14 13 12 13 15 13 10 10 11 11 11 11 12 13 13 10 11 9 10 11 10 11 nan
nan 8 14 13 14 13 12 11 12 11 12 9 11 12 11 13 13 12 10 13 13 12 10 13 13 15 17 7 5 9 10 11 12 11 13 12 12 12 13 11 12 13 12 11 11 11 11 12 10 11 11 12 11 nan
nan 13 14 14 15 9 11 11 12 11 10 12 14 14 12 10 11 11 11 13 10 11 14 13 11 10 12 16 14 11 10 9 11 13 13 13 14 13 12 13 13 12 10 11 12 11 11 10 12 10 10 10 13 nan
nan 13 11 13 11 11 12 12 11 11 13 14 13 13 11 11 11 11 13 13 12 9 10 10 11 14 16 13 12 12 11 12 13 15 11 12 13 13 12 12 13 10 10 14 11 11 11 10 9 11 18 21 9 nan
nan 13 8 10 11 14 12 11 11 13 13 14 13 11 11 12 14 16 13 12 11 13 13 11 10 12 15 17 15 10 9 11 14 15 11 11 12 12 12 11 12 10 10 15 14 10 10 12 12 13 13 11 11 nan
nan 14 12 11 10 10 11 13 13 13 13 12 12 12 11 12 14 15 14 15 12 11 12 12 11 11 13 13 13 11 12 16 14 13 14 10 7 8 12 14 15 13 11 9 16 16 16 13 12 11 11 12 12 nan
nan 12 12 10 13 12 13 12 12 14 14 10 10 13 14 11 15 16 14 11 12 12 12 11 11 10 10 9 10 10 10 10 11 13 15 15 13 11 12 13 13 15 16 16 10 9 11 9 12 11 14 15 12 nan
nan 11 10 13 13 12 14 11 9 14 13 8 14 16 14 11 11 14 14 13 12 10 11 14 14 9 8 10 14 14 10 11 10 10 12 12 12 12 12 11 12 13 15 14 13 18 10 9 10 9 9 12 12 nan
nan 12 11 11 10 13 14 16 15 11 13 14 10 9 13 16 12 10 11 13 15 17 16 12 9 12 12 12 12 14 19 16 9 7 8 12 11 10 11 12 12 13 13 13 13 10 12 16 13 14 13 11 13 nan
nan 10 10 11 15 14 14 12 12 13 13 12 14 16 13 11 14 14 13 15 16 12 11 15 15 12 13 14 13 16 12 15 20 14 10 8 9 11 12 15 13 10 10 12 13 13 12 14 13 11 10 11 12 nan
nan nan nan nan nan nan nan nan nan nan nan nan nan nan nan nan nan nan nan nan nan nan nan nan nan nan nan nan nan nan nan nan nan nan nan nan nan nan nan nan nan nan nan nan nan nan nan nan nan nan nan nan nan nan
CAPE
0 0 0 0 0 1 0 1 2 3 3 4 10 9 16 24 58 68 21 2 11 16 4 6 6 19 21 15 32 21 27 32 18 80 70 94 77 78 39 10 8 31 13 2 0 0 0 0 0 0 6 5 1 2
0 0 0 0 0 2 2 3 4 4 7 10 7 13 20 25 39 67 46 3 3 19 6 8 12 17 8 11 18 20 9 7 45 118 106 79 115 90 74 69 35 16 11 15 0 0 0 0 0 0 0 0 0 1
0 0 0 0 0 2 3 5 5 10 14 8 7 14 14 28 31 49 7 4 10 13 4 9 8 8 5 16 18 21 19 15 7 27 63 59 58 39 78 56 58 41 57 53 23 0 2 5 0 0 0 0 0 0
0 0 0 1 1 3 5 10 12 12 15 8 7 12 15 34 27 34 12 2 4 8 10 3 0 1 3 6 7 16 19 19 15 71 61 79 63 32 43 35 33 45 53 56 64 53 26 2 0 0 0 0 0 0
0 0 0 1 3 6 11 13 12 11 7 6 9 14 18 20 18 34 57 4 0 0 14 8 0 0 0 0 0 5 11 15 31 49 56 50 33 35 25 25 18 19 11 43 34 32 55 42 32 0 0 0 0 0
0 0 0 2 7 9 13 11 6 3 3 6 12 12 13 11 5 23 17 6 6 6 4 18 2 0 0 0 0 0 5 12 31 19 29 31 22 8 33 39 1 23 19 16 30 36 45 50 36 1 46 4 0 9
0 0 6 9 4 5 7 8 8 8 8 10 12 7 4 3 11 7 10 12 4 27 9 17 6 9 8 11 1 2 8 22 22 10 11 14 19 28 11 7 0 0 37 30 38 50 38 37 10 15 6 18 20 70
2 7 5 5 3 7 5 2 6 5 6 12 3 3 0 0 0 14 23 5 13 16 9 22 7 9 11 22 28 23 15 16 15 9 11 12 9 10 11 0 1 2 6 16 24 31 27 12 41 59 124 55 129 143
5 7 2 5 4 6 1 6 3 7 13 9 5 0 5 10 17 33 10 11 29 9 9 8 17 15 5 8 26 9 8 9 19 9 4 8 5 3 0 0 1 38 19 2 7 8 22 28 13 21 171 201 99 92
7 1 1 1 1 3 2 4 7 9 4 0 4 9 7 11 20 2 7 9 13 15 11 11 7 7 5 11 12 13 18 8 11 2 12 3 1 8 21 14 10 20 19 12 18 29 18 6 32 110 56 46 94 53
3 1 3 4 2 2 2 5 5 0 0 2 1 0 6 1 9 14 1 1 2 1 3 2 6 5 5 7 9 11 6 5 70 79 66 30 1 25 17 7 11 15 7 5 111 112 67 1 123 67 18 82 12 2
1 2 3 1 2 1 0 1 2 0 0 0 0 1 2 11 26 11 9 0 0 1 10 4 4 2 2 6 7 11 50 67 116 128 63 19 39 28 4 0 4 2 7 4 6 4 3 3 5 4 4 3 26 29
2 2 1 1 0 0 0 0 1 0 0 0 0 2 3 10 7 3 2 12 9 14 20 34 44 59 38 41 87 114 85 96 108 61 6 108 135 45 11 3 7 0 8 14 2 1 2 2 3 3 2 3 2 3
0 0 1 0 0 0 0 0 0 0 0 0 0 1 6 6 5 15 25 19 9 0 2 25 38 29 23 29 22 36 51 67 68 8 14 101 21 14 15 15 15 1 5 4 0 1 2 2 2 2 3 2 0 4
0 0 0 0 0 0 0 0 0 0 0 0 0 8 19 13 24 10 8 6 1 0 64 67 70 11 11 29 48 20 60 103 42 70 120 69 22 0 0 0 2 0 2 0 0 0 0 0 0 0 0 0 0 0
0 0 0 0 0 0 0 0 0 0 1 0 2 3 5 3 1 0 0 0 0 5 70 26 15 4 20 18 15 19 26 13 69 72 18 4 3 1 0 0 0 0 0 0 0 0 0 0 0 0 0 0 0 0
0 0 0 0 0 0 0 0 0 0 0 8 22 4 3 5 2 0 0 0 0 0 1 0 6 19 19 20 48 9 9 10 16 26 4 2 1 0 0 0 0 0 0 0 0 0 0 0 0 0 0 0 0 0
0 0 0 0 0 2 2 0 0 0 2 4 13 3 0 0 0 0 0 0 0 0 0 0 6 10 13 11 40 48 43 43 50 2 0 0 0 0 0 0 0 0 0 0 0 0 0 0 0 0 0 0 0 0
0 0 0 0 0 4 0 0 0 0 0 1 11 15 8 0 0 0 0 0 0 0 0 1 8 11 12 9 9 23 27 28 58 9 0 0 0 0 0 0 0 0 0 0 0 0 0 0 0 0 0 0 0 0
0 0 0 0 0 11 9 35 1 0 10 11 0 27 21 17 2 0 0 0 0 0 0 4 11 15 9 1 0 3 8 13 24 16 9 0 0 0 0 0 0 0 0 0 0 0 0 0 0 0 0 0 0 0
0 0 0 1 147 81 71 75 57 21 0 11 24 94 42 44 12 5 7 7 5 10 12 16 15 4 0 0 0 0 1 0 1 1 0 2 4 9 5 0 0 0 0 0 0 0 0 1 0 0 0 0 0 0
0 0 35 53 129 107 300 137 290 133 155 86 92 94 27 25 14 0 9 23 22 32 24 19 11 7 6 0 0 0 0 0 0 0 0 0 2 2 1 0 0 0 0 0 1 5 4 2 4 5 5 1 0 0
0 0 72 117 172 6 181 228 467 282 198 112 81 18 31 61 21 3 6 21 29 23 16 10 6 0 0 0 0 0 0 0 0 0 0 0 2 3 3 2 0 0 0 1 5 9 4 0 0 0 1 0 0 0
0 36 142 85 47 34 255 347 340 379 285 201 141 38 98 112 7 5 0 2 7 28 26 27 6 7 6 6 1 0 0 0 0 0 0 0 0 0 1 1 1 1 0 4 4 5 7 4 0 2 1 2 0 0
0 0 1 0 20 147 52 90 129 60 148 219 202 85 195 52 5 0 0 0 0 2 13 17 6 0 0 0 0 0 0 0 0 0 0 0 0 0 0 1 1 1 0 1 4 5 7 9 11 9 8 2 0 2
0 4 3 4 36 21 12 0 0 0 3 61 173 202 72 0 0 0 0 0 0 0 3 3 2 1 0 0 0 0 0 0 0 0 0 0 0 0 0 0 1 3 0 0 3 5 6 7 9 6 6 2 0 3
0 37 153 33 215 209 123 0 0 0 0 0 12 60 1 0 0 0 0 0 0 0 0 0 0 0 0 0 0 0 0 0 0 0 0 0 0 0 0 0 0 0 0 5 8 11 11 11 8 5 7 10 8 9
134 241 162 397 371 302 273 113 0 0 0 0 0 10 0 0 1 0 0 0 0 0 0 0 0 0 0 0 0 0 0 0 0 0 0 0 0 1 0 1 0 0 0 0 1 13 11 10 7 8 9 12 16 17
491 352 187 366 320 348 393 266 60 4 0 0 41 52 11 2 0 0 0 0 0 0 0 0 0 0 0 0 0 0 0 0 0 2 2 3 4 3 3 3 4 3 4 9 0 0 0 0 2 6 12 19 19 16
617 345 386 346 322 281 301 302 275 72 5 9 19 0 0 11 21 15 0 0 0 0 0 0 0 0 0 0 0 0 0 0 0 0 1 1 2 3 7 8 9 8 11 12 13 7 0 3 4 13 8 19 22 15
485 430 485 452 327 438 417 282 72 22 13 9 1 10 88 138 64 9 1 1 0 0 0 0 0 0 0 0 0 0 0 1 0 0 0 1 6 10 11 10 10 16 18 19 18 12 13 7 10 10 13 13 6 8
494 558 545 414 214 409 134 198 232 208 249 182 208 115 130 155 273 276 0 0 0 0 0 0 0 0 0 0 0 0 0 0 2 2 2 6 11 9 11 7 5 9 10 9 9 11 12 9 4 8 6 6 8 7
130 130 234 186 244 370 275 199 292 365 311 261 300 195 210 224 276 52 0 0 0 0 0 0 0 0 0 0 0 0 0 0 0 0 0 0 0 0 0 5 2 4 8 8 14 12 12 11 9 9 11 9 4 7